[[{"header":{"parameterUnit":"m.s-1","parameterCategory":1,"la1":30.2991,"la2":30.254,"lo1":-89.0895,"lo2":-89.0444,"dy":0.0017,"dx":0.0017,"nx":28,"ny":28,"refTime":"2025-09-08T03:00:00:Z","depth":0,"parameterNumber":2,"parameterNumberName":"U-component_of_WINDS"},"data":[0,0,0,0,0,0,0,0,0,0,0,0,0,0,0,0,0,0,0,0,0,0,0,0,0,0,0,0,0,0,0,0,0,0,0,0,0,0,0,0,0,0,0,0,0,0,0,0,0,0,0,0,0,0,0,0,0,0,-1.7165,-1.7164,0,-1.7118,-1.7118,-1.7117,-1.7083,-1.7082,-1.7082,-1.7082,-1.7032,-1.7031,-1.703,0,0,0,0,0,0,0,0,0,0,0,0,0,-1.7221,-1.7221,-1.7165,-1.7164,-1.7164,-1.7118,-1.7118,-1.7117,-1.7083,-1.7082,-1.7082,-1.7082,-1.7033,-1.7032,-1.703,0,0,0,0,0,0,0,0,0,0,0,0,0,-1.7188,-1.722,-1.7165,-1.7141,-1.7139,-1.7119,-1.7118,-1.7117,-1.7083,-1.7082,-1.7082,-1.7082,-1.7033,-1.7032,-1.703,-1.703,0,0,-1.7025,-1.7025,0,0,0,0,0,0,0,0,-1.719,-1.7186,-1.7145,-1.7143,-1.714,-1.7106,-1.712,-1.7088,-1.7083,-1.7104,-1.7082,-1.7081,-1.7057,-1.7054,-1.7046,-1.7027,-1.7025,-1.7025,-1.7024,-1.7024,-1.7023,0,0,0,0,0,0,0,-1.7192,-1.7188,-1.7146,-1.7145,-1.7141,-1.7132,-1.7127,-1.7113,-1.7084,-1.7102,-1.7099,-1.7095,-1.7056,-1.7047,-1.7044,-1.7024,-1.7025,-1.7024,-1.7023,-1.7022,-1.7002,-1.7002,0,0,0,0,0,0,-1.7199,-1.719,-1.7148,-1.7145,-1.7164,-1.7131,-1.7125,-1.7117,-1.7084,-1.7078,-1.7095,-1.7093,-1.705,-1.7046,-1.7043,-1.7039,-1.7024,-1.7022,-1.7021,-1.7002,-1.7002,-1.7003,0,0,0,0,0,0,-1.72,-1.7195,-1.715,-1.7167,-1.716,-1.7131,-1.7122,-1.7117,-1.7108,-1.7078,-1.7073,-1.7092,-1.705,-1.7045,-1.7033,-1.7037,-1.7022,-1.702,-1.7001,-1.7002,-1.7002,-1.7032,0,0,0,0,0,0,-1.7202,-1.7196,-1.7196,-1.7167,-1.716,-1.7142,-1.7122,-1.7116,-1.7106,-1.7103,-1.7074,-1.7069,-1.7049,-1.7035,-1.7031,-1.7034,-1.7019,-1.7001,-1.7001,-1.7002,-1.7031,-1.7034,-1.7037,0,0,0,0,0,-1.7204,-1.7206,-1.7196,-1.7191,-1.7159,-1.7142,-1.7138,-1.7115,-1.7107,-1.7106,-1.7086,-1.707,-1.7037,-1.7035,-1.703,-1.7032,-1.7,-1.7001,-1.7002,-1.703,-1.7033,-1.7037,0,0,0,0,0,0,-1.7236,-1.7202,-1.7191,-1.7184,-1.7166,-1.7136,-1.7135,-1.712,-1.7104,-1.7102,-1.7074,-1.7068,-1.7059,-1.7044,-1.7042,-1.7029,-1.7017,-1.7017,-1.7039,-1.7043,-1.7045,-1.7049,-1.7018,0,0,0,0,0,-1.7242,-1.7232,-1.7203,-1.7199,-1.7191,-1.7165,-1.7156,-1.7141,-1.7121,-1.7113,-1.7093,-1.7074,-1.7059,-1.705,-1.7035,-1.7029,-1.7021,-1.7028,-1.7031,-1.7033,-1.7033,-1.7028,-1.7031,-1.7005,-1.7005,-1.7005,0,0,-1.7255,-1.7235,-1.7231,-1.7205,-1.719,-1.7179,-1.7159,-1.7148,-1.714,-1.7111,-1.7099,-1.7083,-1.706,-1.7051,-1.7046,-1.7039,-1.7039,-1.7034,-1.7037,-1.7035,-1.7029,-1.7032,-1.7034,-1.7006,-1.7006,-1.7006,0,0,-1.7273,-1.7257,-1.7253,-1.7237,-1.7214,-1.7197,-1.7196,-1.7168,-1.7156,-1.7144,-1.7122,-1.7111,-1.7087,-1.7071,-1.706,-1.7071,-1.7055,-1.7067,-1.7081,-1.7076,-1.7078,-1.708,-1.7083,-1.7085,-1.7067,-1.7067,-1.7067,0,-1.7292,-1.7275,-1.7252,-1.7243,-1.7232,-1.7206,-1.72,-1.7187,-1.716,-1.7152,-1.7145,-1.7113,-1.7096,-1.7082,-1.7085,-1.7077,-1.7074,-1.707,-1.708,-1.7081,-1.7082,-1.7085,-1.7087,-1.7069,-1.7068,-1.7068,-1.7068,0,-1.7299,-1.7288,-1.7287,-1.7262,-1.725,-1.7243,-1.7218,-1.7209,-1.7194,-1.7177,-1.7164,-1.7142,-1.7122,-1.7117,-1.7103,-1.7101,-1.7098,-1.7085,-1.7072,-1.7087,-1.7089,-1.709,-1.7071,-1.707,-1.707,-1.7069,0,0,-1.7336,-1.7298,-1.7298,-1.7286,-1.7258,-1.7248,-1.7239,-1.722,-1.7213,-1.7195,-1.7186,-1.7166,-1.7154,-1.7141,-1.7124,-1.712,-1.7129,-1.7108,-1.7107,-1.7112,-1.7126,-1.7135,-1.7137,-1.7119,-1.7119,-1.7119,-1.7128,0,-1.7349,-1.7332,-1.731,-1.7301,-1.7289,-1.7265,-1.7257,-1.7238,-1.7222,-1.7209,-1.7191,-1.7177,-1.7163,-1.7155,-1.715,-1.713,-1.7132,-1.7129,-1.7109,-1.7109,-1.7116,-1.7138,-1.7147,-1.7157,-1.7128,-1.7128,-1.7129,0,-1.7362,-1.7346,-1.7335,-1.7308,-1.7302,-1.7295,-1.7275,-1.7264,-1.7242,-1.7231,-1.7216,-1.7198,-1.7186,-1.7174,-1.7157,-1.7156,-1.7146,-1.7135,-1.7135,-1.7132,-1.7119,-1.7135,-1.7159,-1.716,-1.713,-1.713,-1.713,0,-1.7389,-1.7364,-1.7355,-1.7345,-1.7313,-1.7309,-1.7295,-1.7273,-1.7263,-1.7245,-1.7238,-1.7219,-1.7208,-1.7194,-1.717,-1.7164,-1.7155,-1.7142,-1.7144,-1.7145,-1.7143,-1.7144,-1.7166,-1.7138,-1.7138,-1.7138,-1.7138,0,-1.7406,-1.74,-1.7366,-1.736,-1.7353,-1.7327,-1.732,-1.7304,-1.7285,-1.7274,-1.7252,-1.7242,-1.7212,-1.7199,-1.7181,-1.7169,-1.7164,-1.7154,-1.7149,-1.7156,-1.7157,-1.7149,-1.7147,-1.7139,-1.7139,-1.7139,-1.7139,0,-1.7435,-1.7412,-1.74,-1.737,-1.7363,-1.7359,-1.7333,-1.7326,-1.7308,-1.7295,-1.729,-1.7262,-1.7245,-1.7221,-1.7196,-1.7184,-1.7175,-1.7167,-1.7182,-1.7179,-1.7183,-1.7183,-1.7201,-1.7201,-1.7174,-1.7174,-1.7175,0,-1.7446,-1.7441,-1.7412,-1.7404,-1.7391,-1.7378,-1.7367,-1.7342,-1.7331,-1.7306,-1.7301,-1.7283,-1.7267,-1.7241,-1.7218,-1.7199,-1.719,-1.7197,-1.7187,-1.7194,-1.7189,-1.719,-1.7189,-1.72,-1.72,-1.7201,-1.7201,0,-1.747,-1.7459,-1.7444,-1.7426,-1.7414,-1.7398,-1.7381,-1.7375,-1.7346,-1.7335,-1.7318,-1.7305,-1.7281,-1.7262,-1.724,-1.7225,-1.7208,-1.7205,-1.7204,-1.7211,-1.7219,-1.7214,-1.7188,-1.7204,-1.7204,-1.7204,-1.7203,-1.7203,-1.749,-1.7484,-1.7462,-1.7447,-1.7431,-1.7416,-1.7407,-1.7389,-1.7374,-1.7352,-1.7338,-1.7321,-1.7299,-1.7267,-1.7253,-1.7239,-1.7232,-1.7231,-1.7231,-1.7231,-1.7233,-1.7222,-1.7235,-1.7234,-1.7234,-1.7234,-1.7234,0,-1.7511,-1.7496,-1.7482,-1.7459,-1.7447,-1.7433,-1.7413,-1.7403,-1.7389,-1.737,-1.7354,-1.7334,-1.7316,-1.7291,-1.7271,-1.7265,-1.7256,-1.726,-1.726,-1.7257,-1.7241,-1.7243,-1.7267,-1.7267,-1.7267,-1.7267,-1.7267,-1.7267,-1.7521,-1.751,-1.7497,-1.7478,-1.7462,-1.7446,-1.7436,-1.7421,-1.7405,-1.7384,-1.7369,-1.7353,-1.7331,-1.7309,-1.7292,-1.7285,-1.7278,-1.7284,-1.7275,-1.7261,-1.7258,-1.7255,-1.7257,-1.7283,-1.7283,-1.7292,-1.7292,-1.7292]},{"header":{"parameterUnit":"m.s-1","parameterCategory":1,"la1":30.2991,"la2":30.254,"lo1":-89.0895,"lo2":-89.0444,"dy":0.0017,"dx":0.0017,"nx":28,"ny":28,"refTime":"2025-09-08T03:00:00:Z","depth":0,"parameterNumber":3,"parameterNumberName":"V-component_of_WINDS"},"data":[0,0,0,0,0,0,0,0,0,0,0,0,0,0,0,0,0,0,0,0,0,0,0,0,0,0,0,0,0,0,0,0,0,0,0,0,0,0,0,0,0,0,0,0,0,0,0,0,0,0,0,0,0,0,0,0,0,0,-2.2312,-2.2312,0,-2.2248,-2.2247,-2.2246,-2.2214,-2.2214,-2.2214,-2.2214,-2.2144,-2.2142,-2.214,0,0,0,0,0,0,0,0,0,0,0,0,0,-2.2405,-2.2403,-2.2312,-2.2311,-2.2311,-2.2248,-2.2247,-2.2246,-2.2214,-2.2214,-2.2214,-2.2214,-2.2145,-2.2142,-2.214,0,0,0,0,0,0,0,0,0,0,0,0,0,-2.2355,-2.2403,-2.2312,-2.2287,-2.2284,-2.2248,-2.2247,-2.2246,-2.2214,-2.2214,-2.2214,-2.2214,-2.2145,-2.2143,-2.214,-2.2122,0,0,-2.2131,-2.213,0,0,0,0,0,0,0,0,-2.2358,-2.2351,-2.2292,-2.2289,-2.2286,-2.2239,-2.2254,-2.2204,-2.2214,-2.2241,-2.2214,-2.2214,-2.2175,-2.217,-2.2158,-2.2119,-2.2116,-2.2131,-2.2129,-2.2128,-2.2127,0,0,0,0,0,0,0,-2.2361,-2.2354,-2.2287,-2.2291,-2.2287,-2.2278,-2.2271,-2.2244,-2.2209,-2.2238,-2.2236,-2.2229,-2.2174,-2.2161,-2.2156,-2.2115,-2.2131,-2.2129,-2.2127,-2.2126,-2.206,-2.206,0,0,0,0,0,0,-2.2369,-2.2357,-2.2289,-2.2285,-2.2323,-2.2277,-2.2269,-2.2254,-2.2209,-2.2202,-2.2229,-2.2228,-2.2165,-2.2159,-2.2153,-2.2131,-2.2128,-2.2125,-2.2124,-2.206,-2.206,-2.206,0,0,0,0,0,0,-2.2371,-2.2363,-2.2291,-2.232,-2.231,-2.2275,-2.2259,-2.2253,-2.224,-2.2202,-2.2195,-2.2223,-2.2165,-2.2157,-2.2131,-2.2128,-2.2124,-2.2122,-2.206,-2.206,-2.206,-2.2085,0,0,0,0,0,0,-2.2374,-2.2364,-2.2358,-2.232,-2.2309,-2.2271,-2.2259,-2.2251,-2.2235,-2.2233,-2.2194,-2.2187,-2.2165,-2.2135,-2.2128,-2.2124,-2.2119,-2.206,-2.206,-2.206,-2.2085,-2.2086,-2.2087,0,0,0,0,0,-2.2378,-2.2366,-2.2358,-2.235,-2.23,-2.2271,-2.2264,-2.2239,-2.2235,-2.2228,-2.2204,-2.2189,-2.213,-2.2133,-2.2124,-2.212,-2.206,-2.206,-2.206,-2.2084,-2.2086,-2.2087,0,0,0,0,0,0,-2.2402,-2.2361,-2.2351,-2.2327,-2.2303,-2.2265,-2.2256,-2.2242,-2.2217,-2.2216,-2.2185,-2.2176,-2.2153,-2.2133,-2.2138,-2.2101,-2.2093,-2.2092,-2.2114,-2.2116,-2.2117,-2.2122,-2.2117,0,0,0,0,0,-2.2406,-2.2386,-2.235,-2.2333,-2.2322,-2.2291,-2.2277,-2.226,-2.2233,-2.2222,-2.2196,-2.2169,-2.2145,-2.2129,-2.2104,-2.2082,-2.2073,-2.2074,-2.2076,-2.2077,-2.2076,-2.2063,-2.2064,-2.2059,-2.2059,-2.2059,0,0,-2.2411,-2.2386,-2.2375,-2.2337,-2.2317,-2.2297,-2.2282,-2.2261,-2.2246,-2.2218,-2.2193,-2.2173,-2.2141,-2.2117,-2.2105,-2.21,-2.2075,-2.2077,-2.2078,-2.2076,-2.2063,-2.2064,-2.2064,-2.2059,-2.2059,-2.2059,0,0,-2.2411,-2.239,-2.2374,-2.2354,-2.2324,-2.2304,-2.23,-2.2265,-2.2251,-2.2225,-2.2205,-2.2185,-2.2144,-2.2122,-2.2106,-2.21,-2.2085,-2.2093,-2.21,-2.2088,-2.2089,-2.2089,-2.2087,-2.2087,-2.2092,-2.2092,-2.2092,0,-2.2421,-2.2391,-2.2367,-2.2348,-2.2332,-2.2309,-2.2292,-2.2273,-2.2236,-2.2225,-2.2221,-2.2169,-2.2146,-2.2117,-2.2116,-2.2103,-2.2098,-2.2097,-2.2091,-2.2091,-2.209,-2.2089,-2.2088,-2.2093,-2.2093,-2.2093,-2.2092,0,-2.2406,-2.2385,-2.2376,-2.2343,-2.2326,-2.2308,-2.2281,-2.2266,-2.2251,-2.2232,-2.2206,-2.2178,-2.2148,-2.2139,-2.2124,-2.2109,-2.2107,-2.2097,-2.2089,-2.2093,-2.2091,-2.209,-2.2095,-2.2094,-2.2094,-2.2093,0,0,-2.2418,-2.2374,-2.237,-2.2356,-2.2321,-2.2305,-2.2286,-2.2258,-2.2247,-2.2222,-2.2205,-2.2172,-2.2163,-2.2145,-2.2127,-2.2116,-2.2115,-2.2108,-2.2107,-2.2111,-2.2097,-2.2105,-2.2105,-2.2105,-2.2105,-2.2104,-2.21,0,-2.2413,-2.2381,-2.2359,-2.2334,-2.2316,-2.2294,-2.2278,-2.2255,-2.2236,-2.2217,-2.2196,-2.2173,-2.2163,-2.2152,-2.2141,-2.2117,-2.2112,-2.2117,-2.2089,-2.2088,-2.2098,-2.2104,-2.2111,-2.2109,-2.2099,-2.2099,-2.2099,0,-2.2403,-2.2382,-2.2356,-2.2325,-2.2317,-2.2303,-2.2276,-2.2258,-2.2232,-2.2219,-2.22,-2.2182,-2.2161,-2.2155,-2.2126,-2.213,-2.2117,-2.2104,-2.2103,-2.21,-2.2094,-2.21,-2.2107,-2.2107,-2.2097,-2.2097,-2.2097,0,-2.2416,-2.238,-2.236,-2.2348,-2.2312,-2.2303,-2.2287,-2.2261,-2.2246,-2.2222,-2.2213,-2.2187,-2.2172,-2.2152,-2.2128,-2.2126,-2.2101,-2.2093,-2.209,-2.209,-2.2085,-2.2086,-2.209,-2.2077,-2.2077,-2.2077,-2.2077,0,-2.2413,-2.2398,-2.2366,-2.2354,-2.2337,-2.2312,-2.2296,-2.2278,-2.2255,-2.2238,-2.2217,-2.2202,-2.2171,-2.2151,-2.2132,-2.2111,-2.2104,-2.2093,-2.2088,-2.2095,-2.2097,-2.2086,-2.2086,-2.2076,-2.2076,-2.2076,-2.2076,0,-2.2424,-2.2402,-2.2379,-2.2348,-2.234,-2.2328,-2.2301,-2.2288,-2.2269,-2.2249,-2.2242,-2.2212,-2.2189,-2.2163,-2.213,-2.2117,-2.2097,-2.209,-2.2107,-2.2104,-2.2103,-2.2104,-2.2101,-2.21,-2.2087,-2.2087,-2.2087,0,-2.2424,-2.2413,-2.2381,-2.2369,-2.2355,-2.2336,-2.2322,-2.2297,-2.2283,-2.2253,-2.2244,-2.222,-2.2199,-2.2162,-2.2136,-2.2111,-2.2103,-2.2104,-2.2099,-2.2107,-2.2104,-2.2105,-2.2104,-2.2106,-2.2106,-2.2106,-2.2106,0,-2.2427,-2.2417,-2.2398,-2.2376,-2.236,-2.2341,-2.232,-2.2312,-2.2283,-2.2268,-2.2245,-2.2229,-2.2197,-2.2173,-2.2145,-2.2128,-2.2112,-2.2108,-2.2106,-2.2114,-2.2124,-2.2119,-2.2111,-2.2108,-2.2108,-2.2108,-2.2108,-2.2108,-2.2432,-2.2422,-2.2398,-2.2378,-2.2361,-2.2343,-2.233,-2.2311,-2.2292,-2.2265,-2.2252,-2.2229,-2.2204,-2.2165,-2.2148,-2.213,-2.2125,-2.2122,-2.2121,-2.2121,-2.2123,-2.2128,-2.2124,-2.2124,-2.2124,-2.2124,-2.2124,0,-2.2434,-2.2419,-2.2401,-2.2375,-2.2359,-2.2348,-2.2326,-2.2313,-2.2294,-2.2272,-2.2253,-2.2227,-2.2204,-2.2178,-2.2153,-2.2143,-2.2135,-2.2137,-2.2138,-2.2134,-2.2128,-2.2133,-2.2144,-2.2144,-2.2144,-2.2144,-2.2144,-2.2144,-2.2433,-2.2416,-2.2403,-2.2377,-2.2361,-2.234,-2.2328,-2.2312,-2.2295,-2.2267,-2.2249,-2.2233,-2.2209,-2.2183,-2.2161,-2.2154,-2.2146,-2.215,-2.2141,-2.2136,-2.2134,-2.2133,-2.2137,-2.2149,-2.2149,-2.2148,-2.2148,-2.2148]}]]